"Pseudo-MPEC" for P21Jq1K

Created 2023 Oct 3 21:22:10 UT using Find_Orb

Click here for an explanation of pseudo-MPECs

 
 Astrometry: 
     P21Jq1K* C2023 09 13F:RfE((v,n[=)%,D=\\Astrometry%R)@s#s-8?ZQ@tredacted;F52
     P21Jq1K  C2023 09 13),?ehpK]Qif0u1M2G,dQM7.DsXQ9,4yhPKK'n77D?VJKclickt!RF52
     P21Jq1K  C2023 09 131cR/cLB;?NO?T)-*here/2e##WGPWPUQfor+.explanationn:1@F52

Station data:
(F52) Pan-STARRS 2, Haleakala  (N20.707382 W156.255910)  US/Hawaii.
   Observers J. Bulger, T. Dukes, T. Lowe, A. Schultz, M. Willman. Measurers
   K. Chambers, S. Chastel, T. de Boer, L. Denneau, J. Fairlamb, H.
   Flewelling, M. Huber, C.-C. Lin, E. Magnier, Y. Ramanjooloo, R. Wainscoat,
   R. Weryk. 1.8-m Ritchey-Chrétien + CCD.

Orbital elements:  P21Jq1K
   Perihelion 2025 Jun 6.70740 +/- 886 TT = 16:58:39 (JD 2460833.20740)
Epoch 2023 Sep 13.0 TT = JDT 2460200.5                           AutoNEOCP
M 318.15448048 +/- 60               (J2000 ecliptic)
n   0.06613723 +/- 0.0936           Peri.  180.00827 +/- 80
a   6.05580686 +/- 5.71             Node   261.36304 +/- 60
e   0.3742111 +/- 0.237             Incl.   29.17509 +/- 42
P  14.90                   H 14.91  G  0.15   U 11.2  SR
q 3.78965618 +/- 2.05    Q 8.32195754 +/- 78.3
From 3 observations 2023 Sept. 13 (52.9 min); mean residual 0".05
Residuals in arcseconds: 
230913 F52  .01-  .03-    230913 F52  .03+  .09+    230913 F52  .02-  .06-    

Ephemerides (geocentric):
Date (UTC) HH   RA             Dec           delta  r     elong  mag " sig PA
---- --------  ------------   ------------  ------ ------ -----  --- --------
2023 10 03 21  23 00 09.154   +32 29 52.65  4.0407 4.8821 143.6 21.9  23d 115
2023 10 03 22  23 00 07.980   +32 29 39.80  4.0407 4.8820 143.6 21.9  23d 115
2023 10 03 23  23 00 06.807   +32 29 26.95  4.0406 4.8819 143.6 21.9  23d 115
2023 10 04 00  23 00 05.635   +32 29 14.09  4.0406 4.8818 143.6 21.9  23d 115
2023 10 04 01  23 00 04.464   +32 29 01.21  4.0406 4.8817 143.5 21.9  23d 115
2023 10 04 02  23 00 03.294   +32 28 48.32  4.0406 4.8816 143.5 21.9  23d 115
2023 10 04 03  23 00 02.124   +32 28 35.42  4.0405 4.8814 143.5 21.9  23d 115
2023 10 04 04  23 00 00.956   +32 28 22.50  4.0405 4.8813 143.5 21.9  23d 115
2023 10 04 05  22 59 59.788   +32 28 09.58  4.0405 4.8812 143.5 21.9  23d 115
2023 10 04 06  22 59 58.622   +32 27 56.64  4.0405 4.8811 143.5 21.9  23d 115
2023 10 04 07  22 59 57.456   +32 27 43.69  4.0404 4.8810 143.5 21.9  23d 115
2023 10 04 08  22 59 56.291   +32 27 30.73  4.0404 4.8809 143.5 21.9  23d 115
2023 10 04 09  22 59 55.128   +32 27 17.76  4.0404 4.8807 143.5 21.9  23d 115
2023 10 04 10  22 59 53.965   +32 27 04.77  4.0404 4.8806 143.5 21.9  23d 115
2023 10 04 11  22 59 52.803   +32 26 51.78  4.0404 4.8805 143.4 21.9  23d 115
2023 10 04 12  22 59 51.642   +32 26 38.77  4.0403 4.8804 143.4 21.9  23d 115
2023 10 04 13  22 59 50.482   +32 26 25.75  4.0403 4.8803 143.4 21.9  23d 115
2023 10 04 14  22 59 49.323   +32 26 12.71  4.0403 4.8802 143.4 21.9  23d 115
2023 10 04 15  22 59 48.164   +32 25 59.67  4.0403 4.8801 143.4 21.9  23d 115
2023 10 04 16  22 59 47.007   +32 25 46.61  4.0403 4.8799 143.4 21.9  23d 115
2023 10 04 17  22 59 45.851   +32 25 33.54  4.0402 4.8798 143.4 21.9  23d 115
2023 10 04 18  22 59 44.695   +32 25 20.47  4.0402 4.8797 143.4 21.9  23d 115
2023 10 04 19  22 59 43.541   +32 25 07.37  4.0402 4.8796 143.4 21.9  23d 115
2023 10 04 20  22 59 42.387   +32 24 54.27  4.0402 4.8795 143.4 21.9  23d 115
2023 10 04 21  22 59 41.235   +32 24 41.16  4.0402 4.8794 143.3 21.9  23d 115
2023 10 04 22  22 59 40.083   +32 24 28.03  4.0401 4.8792 143.3 21.9  23d 115
2023 10 04 23  22 59 38.932   +32 24 14.89  4.0401 4.8791 143.3 21.9  23d 115
2023 10 05 00  22 59 37.783   +32 24 01.74  4.0401 4.8790 143.3 21.9  23d 115
2023 10 05 01  22 59 36.634   +32 23 48.58  4.0401 4.8789 143.3 21.9  23d 115
2023 10 05 02  22 59 35.486   +32 23 35.41  4.0401 4.8788 143.3 21.9  23d 115
2023 10 05 03  22 59 34.339   +32 23 22.22  4.0401 4.8787 143.3 21.9  23d 115
2023 10 05 04  22 59 33.193   +32 23 09.02  4.0401 4.8785 143.3 21.9  23d 115
2023 10 05 05  22 59 32.048   +32 22 55.82  4.0400 4.8784 143.3 21.9  23d 115
2023 10 05 06  22 59 30.904   +32 22 42.60  4.0400 4.8783 143.3 21.9  23d 115
2023 10 05 07  22 59 29.761   +32 22 29.36  4.0400 4.8782 143.2 21.9  23d 115
2023 10 05 08  22 59 28.619   +32 22 16.12  4.0400 4.8781 143.2 21.9  23d 115
2023 10 05 09  22 59 27.478   +32 22 02.87  4.0400 4.8780 143.2 21.9  23d 115
2023 10 05 10  22 59 26.338   +32 21 49.60  4.0400 4.8779 143.2 21.9  23d 115
2023 10 05 11  22 59 25.199   +32 21 36.32  4.0400 4.8777 143.2 21.9  23d 115
2023 10 05 12  22 59 24.060   +32 21 23.03  4.0400 4.8776 143.2 21.9  23d 115
2023 10 05 13  22 59 22.923   +32 21 09.73  4.0400 4.8775 143.2 21.9  23d 115
2023 10 05 14  22 59 21.787   +32 20 56.42  4.0399 4.8774 143.2 21.9  23d 116
2023 10 05 15  22 59 20.652   +32 20 43.10  4.0399 4.8773 143.2 21.9  23d 116
2023 10 05 16  22 59 19.517   +32 20 29.76  4.0399 4.8772 143.1 21.9  23d 116
2023 10 05 17  22 59 18.384   +32 20 16.42  4.0399 4.8770 143.1 21.9  23d 116
2023 10 05 18  22 59 17.252   +32 20 03.06  4.0399 4.8769 143.1 21.9  23d 116
2023 10 05 19  22 59 16.120   +32 19 49.69  4.0399 4.8768 143.1 21.9  23d 116
2023 10 05 20  22 59 14.990   +32 19 36.31  4.0399 4.8767 143.1 21.9  23d 116